Location: USNO
(38.9242°N, 77.0663°W)
Time: 13:33:09
(UTC-04:00)

ISS - Pass Details

Date: 11 October 2017
Orbit: 401 x 408 km, 51.6° (Epoch: 23 October)

Event Time Altitude Azimuth Distance (km) Brightness Sun altitude
Rises 20:26:08 0° 311° (NW) 2,327 1.0 -22.3°
Reaches altitude 10° 20:28:15 10° 316° (NW) 1,466 -0.3 -22.8°
Enters shadow 20:30:13 32° 331° (NNW) 729 -2.3 -23.1°
